�ϑ��N����,2023/9/27,,,
�ϑ���,�ؑ�仏�,,,
�ϑ��n�_,A3,,,
���x�v�ԍ�,17,,,
,,,,
����,�C��,����,����,���l
9:30:00,-999,-999,,
9:31:00,-999,-999,,
9:32:00,-999,-999,,
9:33:00,-999,-999,,
9:34:00,-999,-999,,
9:35:00,-999,-999,,
9:36:00,-999,-999,,
9:37:00,-999,-999,,
9:38:00,-999,-999,,
9:39:00,-999,-999,,
9:40:00,-999,-999,,
9:41:00,-999,-999,,
9:42:00,-999,-999,,
9:43:00,-999,-999,,
9:44:00,-999,-999,,
9:45:00,-999,-999,,
9:46:00,-999,-999,,
9:47:00,-999,-999,,
9:48:00,-999,-999,,
9:49:00,-999,-999,,
9:50:00,-999,-999,,
9:51:00,-999,-999,,
9:52:00,-999,-999,,
9:53:00,-999,-999,,
9:54:00,-999,-999,,
9:55:00,-999,-999,,
9:56:00,29.7,0,,
9:57:00,30.2,0,,
9:58:00,30,0,,
9:59:00,30.3,0,,
10:00:00,30.2,0,,
10:01:00,29.7,0,,
10:02:00,30.1,0,,
10:03:00,30.3,0,,
10:04:00,30.8,0,,
10:05:00,30.7,0,,
10:06:00,30.7,0,,
10:07:00,30.1,0,,
10:08:00,30.3,4,,
10:09:00,30.9,0,,
10:10:00,31.1,3,,
10:11:00,31.2,0,,
10:12:00,30.9,0,,
10:13:00,31,3,,
10:14:00,30.9,4,,
10:15:00,31.2,0,,
10:16:00,31.1,3,,
10:17:00,32,0,,
10:18:00,31.8,3,,
10:19:00,31.4,4,,
10:20:00,31.5,3,,
10:21:00,31.9,0,,
10:22:00,32,2,,
10:23:00,32,3,,
10:24:00,31.9,0,,
10:25:00,31.8,0,,
10:26:00,31.9,3,,
10:27:00,32.1,0,,
10:28:00,32,0,,
10:29:00,31.9,4,,
10:30:00,31.7,3,,
10:31:00,31.8,3,,
10:32:00,32,0,,
10:33:00,32,0,,
10:34:00,31.7,4,,
10:35:00,31.7,3,,
10:36:00,31.7,0,,
10:37:00,32,3,,
10:38:00,32,0,,
10:39:00,30.3,4,,
10:40:00,30.2,4,,
10:41:00,30.7,4,,
10:42:00,30.6,3,,
10:43:00,30.1,4,,
10:44:00,29.8,0,,
10:45:00,30.1,0,,
10:46:00,30.2,0,,
10:47:00,31,0,,
10:48:00,31.3,0,,
10:49:00,31.2,3,,
10:50:00,31.3,0,,
10:51:00,31.4,0,,
10:52:00,31.8,4,,
10:53:00,31.9,0,,
10:54:00,31.2,0,,
10:55:00,31.3,0,,
10:56:00,31.4,0,,
10:57:00,31.3,0,,
10:58:00,32.3,4,,
10:59:00,32.3,2,,
11:00:00,32.2,4,,
11:01:00,32,3,,
11:02:00,31.9,0,,
11:03:00,31.9,0,,
11:04:00,31.8,3,,
11:05:00,31.7,0,,
11:06:00,31.7,0,,
11:07:00,31.8,0,,
11:08:00,31.8,4,,
11:09:00,31.7,3,,
11:10:00,31.7,4,,
11:11:00,31.7,3,,
11:12:00,31.7,3,,
11:13:00,31.7,0,,
11:14:00,31.6,3,,
11:15:00,31.6,0,,
11:16:00,31.6,4,,
11:17:00,31.6,3,,
11:18:00,31.5,0,,
11:19:00,31.3,3,,
11:20:00,31.1,3,,
11:21:00,31,3,,
11:22:00,31,0,,
11:23:00,31,0,,
11:24:00,31.3,1,,
11:25:00,30.9,2,,
11:26:00,31,0,,
11:27:00,31.2,0,,
11:28:00,32,0,,
11:29:00,31.8,0,,
11:30:00,31.7,0,,
